Time,TemperatureF,DewpointF,PressureIn,WindDirection,WindDirectionDegrees,WindSpeedMPH,WindSpeedGustMPH,Humidity,HourlyPrecipIn,Conditions,Clouds,dailyrainin,SoftwareType,DateUTC
2013-04-24 00:02:00,39.0,30.0,29.98,North,0,0.0,8.0,69,0.00,,,0.19,,2013-04-24 05:02:00,
2013-04-24 00:12:00,39.0,30.0,29.98,North,0,0.0,8.0,69,0.00,,,0.19,,2013-04-24 05:12:00,
2013-04-24 00:22:00,38.0,29.0,29.98,North,0,0.0,9.0,69,0.00,,,0.19,,2013-04-24 05:22:00,
2013-04-24 00:32:00,38.0,29.0,29.97,North,0,0.0,6.0,70,0.00,,,0.19,,2013-04-24 05:32:00,
2013-04-24 00:42:00,38.0,29.0,29.97,North,0,0.0,6.0,70,0.00,,,0.19,,2013-04-24 05:42:00,
2013-04-24 00:52:00,38.0,29.0,29.97,North,0,0.0,6.0,70,0.00,,,0.19,,2013-04-24 05:52:00,
2013-04-24 01:02:00,38.0,29.0,29.97,North,0,0.0,7.0,70,0.00,,,0.19,,2013-04-24 06:02:00,
2013-04-24 01:12:00,38.0,29.0,29.97,North,0,0.0,7.0,70,0.00,,,0.19,,2013-04-24 06:12:00,
2013-04-24 01:21:00,38.0,29.0,29.98,North,0,0.0,8.0,69,0.00,,,0.19,,2013-04-24 06:21:00,
2013-04-24 01:32:00,38.0,29.0,29.98,NW,312,1.0,7.0,70,0.00,,,0.19,,2013-04-24 06:32:00,
2013-04-24 01:42:00,38.0,29.0,29.98,NW,312,1.0,7.0,70,0.00,,,0.19,,2013-04-24 06:42:00,
2013-04-24 01:51:00,37.0,28.0,29.98,NW,324,1.0,6.0,70,0.00,,,0.19,,2013-04-24 06:51:00,
2013-04-24 02:02:00,37.0,28.0,29.98,North,0,0.0,3.0,70,0.00,,,0.19,,2013-04-24 07:02:00,
2013-04-24 02:11:00,37.0,28.0,29.98,North,0,0.0,3.0,70,0.00,,,0.19,,2013-04-24 07:11:00,
2013-04-24 02:22:00,37.0,28.0,29.98,North,0,0.0,3.0,70,0.00,,,0.19,,2013-04-24 07:22:00,
2013-04-24 02:32:00,37.0,28.0,29.98,North,0,0.0,3.0,70,0.00,,,0.19,,2013-04-24 07:32:00,
2013-04-24 02:52:00,36.0,27.0,29.97,North,0,0.0,5.0,70,0.00,,,0.19,,2013-04-24 07:52:00,
2013-04-24 03:02:00,36.0,27.0,29.97,North,0,0.0,2.0,70,0.00,,,0.19,,2013-04-24 08:02:00,
2013-04-24 03:12:00,36.0,27.0,29.97,North,0,0.0,2.0,70,0.00,,,0.19,,2013-04-24 08:12:00,
2013-04-24 03:21:00,36.0,27.0,29.97,North,0,0.0,1.0,70,0.00,,,0.19,,2013-04-24 08:21:00,
2013-04-24 03:33:00,35.0,27.0,29.96,North,0,0.0,0.0,71,0.00,,,0.19,,2013-04-24 08:33:00,
2013-04-24 03:42:00,35.0,27.0,29.96,North,0,0.0,0.0,71,0.00,,,0.19,,2013-04-24 08:42:00,
2013-04-24 03:51:00,35.0,27.0,29.96,North,0,0.0,6.0,71,0.00,,,0.19,,2013-04-24 08:51:00,
2013-04-24 03:52:00,35.0,27.0,29.96,North,0,0.0,2.0,71,0.00,,,0.19,,2013-04-24 08:52:00,
2013-04-24 04:02:00,35.0,27.0,29.96,North,0,0.0,2.0,71,0.00,,,0.19,,2013-04-24 09:02:00,
2013-04-24 04:11:00,35.0,27.0,29.96,North,0,0.0,2.0,71,0.00,,,0.19,,2013-04-24 09:11:00,
2013-04-24 04:21:00,35.0,27.0,29.96,North,0,0.0,6.0,71,0.00,,,0.19,,2013-04-24 09:21:00,
2013-04-24 04:33:00,35.0,27.0,29.96,North,0,0.0,6.0,71,0.00,,,0.19,,2013-04-24 09:33:00,
2013-04-24 04:42:00,35.0,27.0,29.96,North,0,0.0,6.0,71,0.00,,,0.19,,2013-04-24 09:42:00,
2013-04-24 05:02:00,34.0,26.0,29.96,North,0,0.0,0.0,72,0.00,,,0.18,,2013-04-24 10:02:00,
2013-04-24 05:12:00,34.0,26.0,29.96,North,0,0.0,0.0,72,0.00,,,0.18,,2013-04-24 10:12:00,
2013-04-24 05:22:00,34.0,26.0,29.98,North,0,0.0,2.0,72,0.00,,,0.18,,2013-04-24 10:22:00,
2013-04-24 05:32:00,34.0,26.0,29.98,North,0,0.0,1.0,72,0.00,,,0.18,,2013-04-24 10:32:00,
2013-04-24 05:42:00,34.0,26.0,29.98,North,0,0.0,1.0,72,0.00,,,0.18,,2013-04-24 10:42:00,
2013-04-24 05:52:00,34.0,26.0,29.98,North,0,0.0,1.0,72,0.00,,,0.18,,2013-04-24 10:52:00,
2013-04-24 06:02:00,34.0,26.0,29.98,North,0,0.0,0.0,72,0.00,,,0.18,,2013-04-24 11:02:00,
2013-04-24 06:11:00,34.0,26.0,29.98,North,0,0.0,0.0,72,0.00,,,0.18,,2013-04-24 11:11:00,
2013-04-24 06:21:00,34.0,26.0,29.99,North,0,0.0,0.0,72,0.00,,,0.18,,2013-04-24 11:21:00,
2013-04-24 06:32:00,33.0,25.0,29.99,North,0,0.0,5.0,72,0.00,,,0.18,,2013-04-24 11:32:00,
2013-04-24 06:42:00,33.0,25.0,29.99,North,0,0.0,5.0,72,0.00,,,0.18,,2013-04-24 11:42:00,
2013-04-24 06:52:00,33.0,25.0,29.99,North,0,0.0,5.0,72,0.00,,,0.18,,2013-04-24 11:52:00,
2013-04-24 07:02:00,34.0,26.0,30.00,North,0,0.0,5.0,72,0.00,,,0.18,,2013-04-24 12:02:00,
2013-04-24 07:11:00,34.0,26.0,30.00,North,0,0.0,5.0,72,0.00,,,0.18,,2013-04-24 12:11:00,
2013-04-24 07:22:00,34.0,26.0,30.00,North,0,0.0,5.0,72,0.00,,,0.18,,2013-04-24 12:22:00,
2013-04-24 07:32:00,34.0,26.0,30.01,North,0,0.0,5.0,72,0.00,,,0.18,,2013-04-24 12:32:00,
2013-04-24 07:42:00,34.0,26.0,30.01,North,0,0.0,5.0,72,0.00,,,0.18,,2013-04-24 12:42:00,
2013-04-24 07:52:00,34.0,26.0,30.01,North,0,0.0,5.0,72,0.00,,,0.18,,2013-04-24 12:52:00,
2013-04-24 08:01:00,35.0,27.0,30.01,WNW,300,2.0,5.0,72,0.00,,,0.18,,2013-04-24 13:01:00,
2013-04-24 08:12:00,35.0,27.0,30.01,WNW,300,2.0,5.0,72,0.00,,,0.18,,2013-04-24 13:12:00,
2013-04-24 08:22:00,35.0,27.0,30.01,WNW,282,4.0,7.0,73,0.00,,,0.18,,2013-04-24 13:22:00,
2013-04-24 08:31:00,36.0,28.0,30.01,NW,316,2.0,7.0,73,0.00,,,0.18,,2013-04-24 13:31:00,
2013-04-24 08:41:00,36.0,28.0,30.01,NW,316,2.0,7.0,73,0.00,,,0.18,,2013-04-24 13:41:00,
2013-04-24 08:52:00,36.0,28.0,30.01,West,266,1.0,7.0,72,0.00,,,0.18,,2013-04-24 13:52:00,
2013-04-24 09:01:00,36.0,28.0,30.01,WNW,298,1.0,10.0,72,0.00,,,0.18,,2013-04-24 14:01:00,
2013-04-24 09:11:00,36.0,28.0,30.01,WNW,298,1.0,10.0,72,0.00,,,0.18,,2013-04-24 14:11:00,
2013-04-24 09:21:00,38.0,30.0,30.01,WNW,298,5.0,9.0,72,0.00,,,0.18,,2013-04-24 14:21:00,
2013-04-24 09:32:00,38.0,29.0,30.01,WNW,285,6.0,9.0,71,0.00,,,0.18,,2013-04-24 14:32:00,
2013-04-24 09:41:00,38.0,29.0,30.01,WNW,285,6.0,9.0,71,0.00,,,0.18,,2013-04-24 14:41:00,
2013-04-24 09:51:00,39.0,29.0,30.01,WNW,300,5.0,12.0,68,0.00,,,0.18,,2013-04-24 14:51:00,
2013-04-24 10:01:00,39.0,29.0,30.01,WNW,300,5.0,12.0,68,0.00,,,0.18,,2013-04-24 15:01:00,
2013-04-24 10:11:00,39.0,29.0,30.01,WNW,300,5.0,12.0,68,0.00,,,0.18,,2013-04-24 15:11:00,
2013-04-24 10:21:00,42.0,30.0,30.01,WNW,299,4.0,12.0,61,0.00,,,0.18,,2013-04-24 15:21:00,
2013-04-24 10:33:00,42.0,29.0,30.02,WNW,298,4.0,11.0,59,0.00,,,0.18,,2013-04-24 15:33:00,
2013-04-24 10:43:00,42.0,29.0,30.02,WNW,298,4.0,11.0,59,0.00,,,0.18,,2013-04-24 15:43:00,
2013-04-24 10:52:00,43.0,28.0,30.02,WNW,283,6.0,11.0,55,0.00,,,0.18,,2013-04-24 15:52:00,
2013-04-24 11:03:00,44.0,27.0,30.02,NW,306,2.0,9.0,50,0.00,,,0.18,,2013-04-24 16:03:00,
2013-04-24 11:12:00,44.0,27.0,30.02,NW,306,2.0,9.0,50,0.00,,,0.18,,2013-04-24 16:12:00,
2013-04-24 11:23:00,44.0,27.0,30.01,WNW,288,4.0,10.0,51,0.00,,,0.18,,2013-04-24 16:23:00,
2013-04-24 11:32:00,45.0,28.0,30.01,North,0,0.0,8.0,52,0.00,,,0.18,,2013-04-24 16:32:00,
2013-04-24 11:42:00,45.0,26.0,30.01,WNW,296,6.0,13.0,47,0.00,,,0.18,,2013-04-24 16:42:00,
2013-04-24 11:52:00,45.0,26.0,30.01,WNW,296,6.0,13.0,47,0.00,,,0.18,,2013-04-24 16:52:00,
2013-04-24 12:02:00,46.0,27.0,30.01,North,0,0.0,6.0,48,0.00,,,0.18,,2013-04-24 17:02:00,
2013-04-24 12:12:00,46.0,27.0,30.01,North,0,0.0,6.0,48,0.00,,,0.18,,2013-04-24 17:12:00,
2013-04-24 12:22:00,47.0,27.0,30.01,WNW,303,3.0,9.0,46,0.00,,,0.18,,2013-04-24 17:22:00,
2013-04-24 12:32:00,47.0,27.0,30.00,WNW,298,3.0,6.0,46,0.00,,,0.18,,2013-04-24 17:32:00,
2013-04-24 12:42:00,47.0,27.0,30.00,WNW,298,3.0,6.0,46,0.00,,,0.18,,2013-04-24 17:42:00,
2013-04-24 12:51:00,48.0,27.0,30.00,North,0,0.0,9.0,43,0.00,,,0.17,,2013-04-24 17:51:00,
2013-04-24 13:02:00,48.0,27.0,30.00,North,0,0.0,9.0,43,0.00,,,0.17,,2013-04-24 18:02:00,
2013-04-24 13:12:00,48.0,27.0,30.00,North,0,0.0,9.0,43,0.00,,,0.17,,2013-04-24 18:12:00,
2013-04-24 13:21:00,49.0,28.0,29.99,West,266,3.0,9.0,44,0.00,,,0.14,,2013-04-24 18:21:00,
2013-04-24 13:33:00,49.0,27.0,29.99,West,268,4.0,12.0,43,0.00,,,0.12,,2013-04-24 18:33:00,
2013-04-24 13:42:00,49.0,27.0,29.99,West,268,4.0,12.0,43,0.00,,,0.12,,2013-04-24 18:42:00,
2013-04-24 13:52:00,49.0,26.0,29.99,WNW,294,4.0,15.0,41,0.00,,,0.11,,2013-04-24 18:52:00,
2013-04-24 14:02:00,49.0,27.0,29.99,West,279,2.0,12.0,43,0.00,,,0.09,,2013-04-24 19:02:00,
2013-04-24 14:11:00,49.0,27.0,29.99,West,279,2.0,12.0,43,0.00,,,0.09,,2013-04-24 19:11:00,
2013-04-24 14:21:00,51.0,29.0,29.99,West,261,3.0,16.0,42,0.00,,,0.08,,2013-04-24 19:21:00,
2013-04-24 14:32:00,51.0,28.0,29.99,West,270,1.0,15.0,41,0.00,,,0.06,,2013-04-24 19:32:00,
2013-04-24 14:42:00,51.0,28.0,29.99,West,270,1.0,15.0,41,0.00,,,0.06,,2013-04-24 19:42:00,
2013-04-24 14:52:00,51.0,28.0,29.99,West,270,1.0,15.0,41,0.00,,,0.06,,2013-04-24 19:52:00,
2013-04-24 15:02:00,51.0,29.0,29.99,West,268,3.0,15.0,43,0.00,,,0.03,,2013-04-24 20:02:00,
2013-04-24 15:11:00,51.0,29.0,29.99,West,268,3.0,15.0,43,0.00,,,0.03,,2013-04-24 20:11:00,
2013-04-24 15:22:00,51.0,29.0,29.99,West,268,3.0,15.0,43,0.00,,,0.03,,2013-04-24 20:22:00,
2013-04-24 15:32:00,52.0,27.0,29.99,NW,313,5.0,14.0,38,0.00,,,0.01,,2013-04-24 20:32:00,
2013-04-24 15:42:00,52.0,27.0,29.99,NW,313,5.0,14.0,38,0.00,,,0.01,,2013-04-24 20:42:00,
2013-04-24 15:52:00,53.0,29.0,29.98,West,269,4.0,14.0,39,0.00,,,0.01,,2013-04-24 20:52:00,
2013-04-24 16:02:00,53.0,28.0,29.98,WSW,246,2.0,12.0,38,0.00,,,0.01,,2013-04-24 21:02:00,
2013-04-24 16:11:00,53.0,28.0,29.98,WSW,246,2.0,12.0,38,0.00,,,0.01,,2013-04-24 21:11:00,
2013-04-24 16:21:00,53.0,29.0,29.98,West,263,6.0,16.0,39,0.00,,,0.00,,2013-04-24 21:21:00,
2013-04-24 16:33:00,54.0,29.0,29.98,West,268,7.0,16.0,38,0.00,,,0.00,,2013-04-24 21:33:00,
2013-04-24 16:42:00,54.0,29.0,29.98,West,268,7.0,16.0,38,0.00,,,0.00,,2013-04-24 21:42:00,
2013-04-24 16:52:00,53.0,27.0,29.98,West,270,8.0,14.0,37,0.00,,,0.00,,2013-04-24 21:52:00,
2013-04-24 17:03:00,53.0,27.0,29.98,West,270,8.0,14.0,37,0.00,,,0.00,,2013-04-24 22:03:00,
2013-04-24 17:12:00,53.0,27.0,29.98,West,270,8.0,14.0,37,0.00,,,0.00,,2013-04-24 22:12:00,
2013-04-24 17:22:00,54.0,28.0,29.98,WSW,246,6.0,12.0,36,0.00,,,0.00,,2013-04-24 22:22:00,
2013-04-24 17:33:00,54.0,28.0,29.98,WNW,282,9.0,18.0,37,0.00,,,0.00,,2013-04-24 22:33:00,
2013-04-24 17:42:00,54.0,28.0,29.98,WNW,282,9.0,18.0,37,0.00,,,0.00,,2013-04-24 22:42:00,
2013-04-24 17:52:00,53.0,29.0,29.99,West,275,5.0,19.0,40,0.00,,,0.00,,2013-04-24 22:52:00,
2013-04-24 18:02:00,52.0,28.0,29.98,West,264,5.0,13.0,39,0.00,,,0.00,,2013-04-24 23:02:00,
2013-04-24 18:12:00,52.0,28.0,29.98,West,264,5.0,13.0,39,0.00,,,0.00,,2013-04-24 23:12:00,
2013-04-24 18:21:00,53.0,31.0,29.98,West,266,4.0,16.0,42,0.00,,,0.00,,2013-04-24 23:21:00,
2013-04-24 18:32:00,52.0,28.0,29.98,West,262,2.0,10.0,39,0.00,,,0.00,,2013-04-24 23:32:00,
2013-04-24 18:42:00,52.0,28.0,29.98,West,262,2.0,10.0,39,0.00,,,0.00,,2013-04-24 23:42:00,
2013-04-24 18:51:00,53.0,30.0,29.98,WSW,258,2.0,10.0,41,0.00,,,0.00,,2013-04-24 23:51:00,
2013-04-24 19:01:00,52.0,28.0,29.98,West,261,3.0,11.0,40,0.00,,,0.00,,2013-04-25 00:01:00,
2013-04-24 19:12:00,52.0,28.0,29.98,West,261,3.0,11.0,40,0.00,,,0.00,,2013-04-25 00:12:00,
2013-04-24 19:22:00,51.0,28.0,29.98,West,264,4.0,11.0,41,0.00,,,0.00,,2013-04-25 00:22:00,
2013-04-24 19:32:00,51.0,30.0,29.98,West,273,1.0,6.0,45,0.00,,,0.00,,2013-04-25 00:32:00,
2013-04-24 19:42:00,51.0,30.0,29.98,West,273,1.0,6.0,45,0.00,,,0.00,,2013-04-25 00:42:00,
2013-04-24 19:52:00,51.0,28.0,29.98,West,262,3.0,9.0,40,0.00,,,0.00,,2013-04-25 00:52:00,
2013-04-24 20:01:00,49.0,28.0,29.98,West,277,1.0,7.0,44,0.00,,,0.00,,2013-04-25 01:01:00,
2013-04-24 20:11:00,49.0,28.0,29.98,West,277,1.0,7.0,44,0.00,,,0.00,,2013-04-25 01:11:00,
2013-04-24 20:22:00,48.0,29.0,29.99,North,0,0.0,6.0,47,0.00,,,0.00,,2013-04-25 01:22:00,
2013-04-24 20:32:00,47.0,29.0,30.00,North,0,0.0,2.0,50,0.00,,,0.00,,2013-04-25 01:32:00,
2013-04-24 20:42:00,47.0,29.0,30.00,North,0,0.0,2.0,50,0.00,,,0.00,,2013-04-25 01:42:00,
2013-04-24 20:52:00,47.0,29.0,30.00,North,0,0.0,3.0,50,0.00,,,0.00,,2013-04-25 01:52:00,
2013-04-24 21:02:00,47.0,29.0,30.00,North,0,0.0,3.0,50,0.00,,,0.00,,2013-04-25 02:02:00,
2013-04-24 21:11:00,47.0,29.0,30.00,North,0,0.0,3.0,50,0.00,,,0.00,,2013-04-25 02:11:00,
2013-04-24 21:22:00,46.0,31.0,30.01,WSW,250,1.0,7.0,55,0.00,,,0.00,,2013-04-25 02:22:00,
2013-04-24 21:32:00,46.0,31.0,30.01,WSW,250,1.0,7.0,55,0.00,,,0.00,,2013-04-25 02:32:00,
2013-04-24 21:42:00,46.0,31.0,30.01,WSW,250,1.0,7.0,55,0.00,,,0.00,,2013-04-25 02:42:00,
2013-04-24 21:51:00,46.0,31.0,30.01,WSW,250,1.0,7.0,55,0.00,,,0.00,,2013-04-25 02:51:00,
2013-04-24 22:02:00,46.0,32.0,30.02,SW,228,1.0,8.0,57,0.00,,,0.00,,2013-04-25 03:02:00,
2013-04-24 22:11:00,46.0,32.0,30.01,North,0,0.0,5.0,59,0.00,,,0.00,,2013-04-25 03:11:00,
2013-04-24 22:22:00,46.0,32.0,30.01,North,0,0.0,5.0,59,0.00,,,0.00,,2013-04-25 03:22:00,
2013-04-24 22:33:00,46.0,32.0,30.01,North,0,0.0,5.0,59,0.00,,,0.00,,2013-04-25 03:33:00,
2013-04-24 22:42:00,46.0,32.0,30.01,North,0,0.0,5.0,59,0.00,,,0.00,,2013-04-25 03:42:00,
2013-04-24 22:52:00,45.0,32.0,30.01,North,0,0.0,5.0,61,0.00,,,0.00,,2013-04-25 03:52:00,
2013-04-24 23:03:00,45.0,32.0,30.01,North,0,0.0,6.0,61,0.00,,,0.00,,2013-04-25 04:03:00,
2013-04-24 23:32:00,45.0,33.0,30.00,North,0,0.0,8.0,62,0.00,,,0.00,,2013-04-25 04:32:00,
2013-04-24 23:43:00,45.0,33.0,30.00,North,0,0.0,8.0,62,0.00,,,0.00,,2013-04-25 04:43:00,
2013-04-24 23:52:00,45.0,33.0,29.99,North,0,0.0,7.0,62,0.00,,,0.00,,2013-04-25 04:52:00,